Temperature
17 16 16 16 17 17 17 16 16 16 16 16 16 16 16 16 16 16 16 16 16 16 16 16 16 16 17 17 17 17 17 17 17 17 17 17 17 17 17 17 17 18 18
17 16 16 16 17 17 17 16 16 16 16 16 16 16 16 16 15 16 16 16 16 16 16 16 16 17 17 16 16 17 17 17 17 17 17 16 17 17 17 17 17 18 18
17 17 17 17 17 17 17 16 16 16 16 16 16 16 16 15 15 15 15 16 16 16 16 16 16 16 16 16 16 16 16 16 17 16 16 16 16 16 17 17 17 18 18
17 17 17 17 18 17 17 17 17 16 16 16 16 16 15 15 15 15 15 15 16 16 16 16 16 15 16 16 16 16 16 16 16 16 16 16 16 16 17 17 17 17 17
17 17 17 17 18 18 17 17 17 16 16 16 15 16 15 15 15 15 15 15 15 15 16 16 16 16 16 15 15 15 15 15 16 16 16 16 16 16 16 17 17 17 17
17 17 17 18 18 18 18 17 17 16 16 16 16 15 15 15 15 15 15 14 14 15 15 15 16 16 16 16 16 15 15 15 15 16 16 16 16 16 16 16 16 16 16
17 17 17 18 18 17 17 17 17 16 16 16 16 15 15 15 14 14 14 14 14 15 15 15 16 16 16 16 16 16 15 14 14 15 16 16 16 16 16 16 16 15 16
17 17 18 18 18 17 18 18 17 16 16 16 16 15 14 14 14 14 14 14 14 14 15 15 15 16 16 16 17 16 16 15 15 16 16 15 15 16 16 16 16 16 16
17 17 18 18 18 18 18 18 18 17 16 16 16 16 15 14 14 14 14 14 14 14 15 15 15 15 15 16 16 16 16 16 16 15 15 15 15 16 16 16 16 16 16
17 17 17 17 17 17 18 18 18 17 17 16 16 16 16 16 15 14 13 13 14 14 14 14 14 15 15 15 15 15 16 16 16 16 15 14 15 15 16 16 16 16 16
17 17 17 17 17 17 18 17 17 17 17 17 17 16 16 16 16 15 13 13 13 13 13 14 14 14 14 15 15 15 15 15 16 16 15 15 15 15 15 15 15 15 16
16 17 16 16 17 17 17 17 17 16 17 17 17 17 16 16 16 16 15 13 13 13 13 13 13 13 14 14 14 14 14 15 15 15 15 14 14 14 14 15 15 15 15
15 16 16 16 16 16 16 16 16 16 16 16 17 16 16 16 16 16 16 14 13 12 12 12 13 13 13 13 14 13 14 14 14 14 14 13 14 14 14 15 15 15 15
15 16 16 16 16 16 16 16 16 16 16 16 16 16 16 16 16 16 16 16 14 13 13 13 13 13 13 13 13 13 13 13 14 14 13 13 13 13 14 14 14 14 14
15 15 15 15 16 16 16 16 16 16 15 15 15 15 16 16 16 16 16 16 16 15 14 13 13 13 13 12 12 12 13 13 13 13 13 12 13 12 12 13 13 13 13
16 16 16 16 16 15 15 16 16 16 15 15 15 15 15 16 16 16 16 16 16 16 16 14 14 13 13 12 12 12 12 12 13 13 13 13 12 13 13 13 13 13 13
17 16 15 16 16 16 16 16 16 16 16 16 15 15 15 15 15 15 15 16 16 16 16 15 14 13 12 12 12 12 12 12 12 13 13 13 12 13 14 14 14 13 13
16 15 15 15 16 16 16 16 16 15 16 16 16 16 15 15 15 15 15 15 15 15 15 16 15 13 12 12 11 11 11 12 12 12 13 13 13 13 13 14 14 13 13
16 14 15 15 15 15 15 15 16 15 15 16 16 15 15 14 15 15 15 15 15 15 15 15 16 14 13 12 11 11 11 11 11 12 12 12 12 13 13 13 12 12 13
16 16 16 15 15 14 15 15 15 15 15 15 15 15 15 15 14 14 15 15 15 15 15 14 15 15 13 12 12 11 11 11 11 11 11 12 12 12 11 11 10 10 10
15 15 14 14 14 14 15 15 15 15 15 15 15 15 15 15 14 14 15 15 15 15 15 14 15 15 14 14 14 12 11 11 11 11 11 11 11 11 11 10 10 9 9
14 14 14 14 14 14 14 15 15 15 15 15 15 15 15 15 15 15 15 15 15 15 15 14 15 15 16 15 14 13 11 11 11 11 11 11 11 10 10 10 9 9 9
14 14 14 14 14 14 14 14 14 14 15 15 15 15 15 15 15 15 15 15 15 15 16 16 16 16 16 16 15 14 12 12 11 11 11 10 10 10 10 9 9 9 9
14 14 14 14 14 14 14 14 14 14 14 14 15 15 15 15 15 15 16 16 15 15 15 15 15 16 16 16 15 14 13 12 11 10 10 9 10 10 9 9 9 9 9
14 14 14 13 13 14 14 14 14 14 15 15 14 14 15 14 14 15 15 15 15 15 15 14 14 14 15 15 14 14 12 11 11 10 10 9 10 10 9 9 9 9 9
14 13 13 12 13 13 13 13 14 14 14 14 14 14 15 14 14 14 14 14 14 14 14 14 14 14 14 15 14 14 13 13 12 11 10 10 11 10 9 10 9 9 9
Wind_Speed
5 5 4 5 5 5 4 4 4 3 5 9 12 10 8 10 12 12 14 17 16 15 13 12 12 11 11 12 12 12 12 10 8 5 5 5 6 7 6 4 5 6 6
8 5 4 4 6 5 3 4 5 2 3 6 7 8 8 10 11 12 13 16 18 18 17 16 15 15 14 14 14 14 13 11 9 6 6 5 6 7 6 4 5 6 7
10 5 6 6 7 8 7 4 5 4 3 4 6 6 7 8 9 11 12 15 16 17 19 19 19 18 17 16 16 15 14 12 11 8 5 4 5 6 7 6 5 6 7
13 9 6 6 9 10 8 5 4 3 4 5 5 4 5 5 6 7 9 12 14 14 16 18 19 19 20 18 18 17 15 13 11 9 6 4 2 4 8 9 7 6 6
16 12 7 6 10 8 7 8 4 3 4 5 6 5 6 5 4 5 6 8 10 12 12 15 16 17 18 19 19 18 15 13 13 11 7 5 3 3 6 7 6 6 5
15 11 6 7 8 7 8 9 7 3 5 6 6 4 4 5 5 4 4 6 7 10 11 12 13 13 16 18 19 19 16 16 15 14 10 6 2 4 6 7 6 6 5
12 8 7 7 7 7 9 10 6 5 2 3 5 4 5 5 5 4 4 4 6 10 13 13 13 13 12 14 16 18 18 16 16 15 12 9 4 4 7 8 7 6 6
10 11 11 9 9 8 9 9 5 4 3 4 5 4 2 3 3 3 3 5 5 9 10 12 14 14 13 12 15 18 20 20 18 15 12 9 7 3 5 8 9 8 7
9 11 9 9 10 10 9 8 7 6 5 3 4 5 5 4 2 2 2 3 6 6 6 9 12 13 14 15 15 16 17 17 16 14 10 11 9 5 1 6 9 11 9
11 10 10 8 8 8 9 9 9 5 6 6 3 1 3 5 4 3 2 2 3 6 5 5 9 11 12 13 13 14 14 15 17 18 16 13 10 6 4 3 5 7 8
5 6 8 8 7 6 5 5 7 6 5 7 5 4 2 2 3 4 3 2 2 2 4 4 7 8 9 10 10 12 13 14 15 17 18 16 13 10 8 2 6 8 8
1 2 4 3 6 6 4 4 5 7 7 6 5 5 5 4 4 4 4 4 3 1 2 3 4 7 7 8 9 10 12 13 14 15 17 18 17 16 16 13 2 9 8
2 2 2 3 6 6 5 4 5 7 7 7 7 5 5 5 5 5 5 5 3 1 2 1 3 7 7 8 9 10 12 13 12 13 17 20 21 20 19 21 8 7 4
4 5 2 2 5 6 5 7 8 7 6 8 9 7 5 6 5 5 6 7 4 1 1 2 1 5 7 8 8 9 11 11 11 11 15 16 18 19 19 22 20 18 18
6 9 6 3 6 6 9 9 7 8 7 6 7 7 5 5 6 6 9 11 8 5 5 4 3 4 8 9 9 9 10 10 10 9 10 12 13 13 13 14 17 20 22
6 7 5 5 7 9 11 9 6 7 8 7 6 7 6 5 5 6 8 9 6 5 5 4 3 4 7 8 9 9 9 9 8 8 9 9 9 10 10 12 14 14 14
4 6 4 5 8 9 7 7 7 8 8 7 8 8 8 7 8 7 7 7 6 5 4 3 2 4 4 6 8 8 7 7 7 8 8 7 9 9 9 11 12 13 13
6 6 8 9 12 9 8 7 8 9 10 10 9 8 8 8 9 8 7 8 7 5 5 4 3 4 4 6 6 5 5 5 6 7 6 6 9 11 10 11 12 12 13
5 6 5 9 10 10 10 10 8 8 9 9 9 9 10 10 8 8 7 8 7 5 4 5 5 4 3 4 4 3 3 1 4 6 5 4 5 8 9 10 12 13 15
2 6 5 5 7 10 11 9 8 9 9 8 8 10 10 10 10 10 10 9 9 8 7 7 6 7 4 5 5 3 3 1 0 4 3 4 4 3 5 7 10 13 15
6 7 6 6 6 6 8 9 9 9 8 7 7 8 10 12 14 13 10 9 9 9 9 7 6 6 5 6 6 4 4 2 1 1 2 3 4 4 3 5 8 11 13
6 6 5 5 5 5 8 12 10 8 8 7 8 8 8 11 12 14 15 15 15 14 12 8 6 8 10 8 6 5 4 3 2 2 3 0 1 1 1 3 7 9 11
2 3 4 4 4 5 5 9 11 8 8 8 8 7 5 4 5 8 13 16 17 19 19 13 10 10 10 13 11 8 6 4 4 4 4 1 1 1 2 4 8 9 10
3 4 4 4 2 4 5 8 13 9 7 7 7 7 5 4 5 7 8 8 8 9 10 8 9 11 9 12 13 10 8 5 4 3 4 3 3 2 2 5 9 10 10
5 4 4 4 4 5 5 4 6 5 6 6 6 6 8 7 8 9 7 7 7 7 8 8 7 10 13 17 16 10 8 7 3 3 4 4 3 3 0 1 9 11 11
5 4 5 5 6 5 5 6 7 4 4 5 4 5 8 10 13 14 10 8 9 10 9 7 9 10 11 17 22 15 12 9 5 4 7 6 4 4 2 3 5 10 11
Wind_Direction
169 180 190 189 200 200 165 109 65 59 126 108 105 108 93 80 70 60 55 56 58 62 63 62 61 65 67 67 65 66 69 70 83 99 117 126 134 136 127 107 104 96 92
170 173 184 189 198 207 144 136 102 124 101 105 104 112 105 92 84 69 64 59 56 58 60 60 59 62 66 69 69 69 67 64 68 81 104 125 133 145 146 131 112 107 98
180 149 187 193 187 181 154 142 118 151 109 100 104 113 114 112 107 86 74 68 58 53 55 55 54 58 64 66 68 66 64 61 58 62 81 118 142 150 155 148 130 118 99
177 149 171 188 180 165 150 147 129 134 118 109 105 115 109 127 130 111 91 81 72 60 54 55 48 47 52 57 63 62 60 58 56 59 69 68 132 164 157 147 138 125 104
172 157 169 179 170 161 150 153 130 131 125 119 121 117 108 109 124 126 113 100 90 78 63 58 51 48 48 48 50 52 54 57 55 55 62 64 96 157 164 154 151 154 152
172 155 159 165 161 149 142 144 133 126 134 141 118 91 80 86 96 104 106 94 92 85 69 57 50 45 46 44 43 42 42 47 44 40 44 54 89 176 182 171 170 170 170
183 143 153 153 151 150 153 136 118 120 108 118 102 70 35 37 59 72 87 92 90 93 78 65 56 48 40 39 42 37 35 43 42 33 30 38 47 178 184 184 183 183 171
170 148 151 155 153 154 139 121 114 129 137 180 129 115 76 15 13 32 78 103 100 99 82 71 62 50 42 36 36 35 31 32 31 20 13 31 36 85 178 196 200 195 182
140 136 145 146 154 158 152 152 151 168 146 193 182 141 150 186 167 37 39 84 110 100 94 84 68 54 46 39 36 35 34 27 24 18 21 45 38 52 154 209 217 204 194
139 148 146 141 148 156 166 176 168 168 149 164 198 135 122 153 147 136 67 40 83 108 113 95 84 68 56 45 40 42 40 34 25 21 25 30 28 45 85 140 183 195 204
121 149 147 145 153 146 152 179 173 169 164 171 173 145 122 118 136 133 152 157 80 81 113 109 105 88 66 53 43 40 41 36 33 30 27 28 36 64 63 67 181 179 183
57 61 91 146 155 146 157 186 204 194 194 182 187 169 160 166 179 151 147 156 136 126 124 121 119 103 78 61 49 41 39 37 36 36 36 29 42 53 42 31 166 182 189
163 80 64 194 201 179 163 166 198 214 202 188 195 201 185 192 163 142 136 141 119 135 136 167 146 118 101 79 59 45 43 41 40 40 43 36 47 49 40 27 61 116 110
159 143 224 253 224 180 176 195 195 209 196 192 194 198 196 202 178 152 149 145 121 134 165 161 119 134 126 101 77 58 50 46 43 43 49 47 51 51 38 37 54 64 62
170 152 167 230 250 217 197 194 195 205 197 200 205 191 191 199 187 170 163 167 152 158 196 178 150 156 147 124 101 78 60 53 49 47 50 55 63 63 50 46 49 55 63
155 130 126 191 216 222 200 185 203 206 200 207 216 212 201 186 187 177 173 179 158 138 167 172 170 139 147 131 114 91 72 58 54 53 53 49 63 82 67 57 53 50 62
161 134 137 259 246 237 225 198 202 198 201 209 218 211 211 178 185 190 178 180 164 136 124 147 123 124 130 142 119 107 89 70 60 59 61 55 55 71 74 67 57 54 67
168 184 169 229 258 252 240 217 203 194 205 209 214 203 214 191 186 192 184 186 170 147 127 131 135 147 155 153 140 130 107 88 73 69 65 60 51 60 67 69 63 59 69
163 228 187 217 234 236 230 214 201 203 208 209 200 196 213 202 185 184 191 187 179 151 124 149 147 155 140 149 134 104 91 87 101 85 68 66 56 58 66 73 78 74 73
267 273 268 248 239 237 234 214 196 210 212 209 200 200 210 208 198 189 192 183 168 152 141 150 146 161 159 155 147 144 153 202 65 76 68 58 58 64 89 92 97 95 89
243 255 252 242 245 240 231 216 200 194 204 205 206 205 210 211 207 192 187 172 153 143 143 147 152 157 171 168 173 171 163 164 97 116 31 19 33 26 62 105 113 110 102
234 231 231 237 255 254 240 217 192 184 198 207 218 222 218 219 213 197 187 177 169 158 154 162 170 180 187 179 164 169 147 138 181 190 127 73 59 38 10 121 137 132 122
201 237 247 239 257 270 256 226 205 186 195 208 218 205 178 185 180 192 190 181 179 175 172 170 175 186 185 189 172 169 170 159 178 169 124 140 201 164 212 201 166 154 145
207 234 247 262 272 274 264 225 212 201 185 196 198 174 168 156 127 117 130 156 169 177 179 168 178 190 190 178 178 170 160 139 85 110 135 162 184 165 182 222 193 173 163
204 217 227 238 256 268 258 201 163 159 150 173 188 181 160 166 181 154 135 144 166 181 184 172 186 192 172 168 161 139 144 155 146 178 191 158 157 117 119 247 225 198 185
223 223 235 227 243 257 234 200 148 148 157 161 165 194 180 176 176 170 175 176 190 197 185 178 180 192 177 174 176 175 169 171 152 182 199 175 157 132 183 248 231 221 204
Height
1537 1539 1540 1541 1543 1545 1548 1548 1549 1550 1550 1550 1550 1550 1550 1548 1548 1547 1547 1547 1547 1546 1546 1547 1546 1546 1545 1544 1543 1543 1543 1544 1544 1545 1546 1546 1546 1546 1547 1548 1548 1548 1548
1536 1538 1540 1542 1544 1547 1549 1550 1550 1551 1552 1552 1551 1551 1551 1551 1551 1550 1550 1550 1549 1548 1548 1548 1548 1547 1546 1546 1545 1544 1544 1544 1544 1545 1545 1546 1547 1547 1547 1548 1548 1548 1549
1535 1538 1539 1541 1543 1546 1547 1549 1551 1552 1553 1553 1553 1553 1553 1554 1553 1553 1553 1552 1552 1551 1549 1549 1549 1549 1549 1548 1547 1546 1546 1546 1545 1545 1545 1546 1547 1548 1548 1548 1549 1549 1550
1533 1535 1537 1539 1541 1543 1545 1548 1551 1553 1554 1554 1554 1554 1555 1555 1555 1555 1555 1555 1554 1554 1553 1552 1552 1552 1551 1550 1548 1547 1547 1547 1546 1546 1546 1546 1547 1548 1548 1548 1549 1550 1550
1532 1534 1536 1539 1541 1543 1545 1547 1550 1553 1554 1554 1555 1556 1556 1556 1557 1557 1557 1556 1555 1555 1555 1554 1554 1553 1552 1551 1549 1549 1548 1548 1546 1546 1546 1546 1546 1547 1548 1548 1549 1549 1549
1530 1533 1535 1538 1540 1541 1544 1547 1549 1552 1553 1554 1555 1556 1557 1557 1559 1559 1559 1558 1557 1556 1556 1556 1555 1554 1553 1552 1551 1550 1550 1548 1546 1546 1546 1546 1546 1547 1547 1548 1547 1547 1548
1527 1530 1533 1535 1538 1540 1543 1546 1548 1552 1553 1553 1555 1556 1558 1559 1560 1561 1561 1560 1559 1558 1558 1558 1558 1556 1555 1554 1552 1552 1551 1549 1548 1547 1547 1547 1546 1546 1546 1546 1546 1547 1548
1525 1527 1529 1533 1536 1539 1541 1544 1547 1549 1551 1553 1554 1555 1558 1561 1561 1562 1562 1562 1561 1560 1560 1560 1560 1558 1557 1555 1554 1553 1551 1549 1548 1548 1548 1547 1546 1546 1545 1546 1546 1547 1547
1521 1524 1527 1531 1534 1537 1540 1545 1546 1547 1549 1551 1553 1554 1556 1558 1560 1562 1562 1562 1561 1561 1562 1562 1561 1560 1559 1557 1555 1554 1553 1551 1550 1549 1549 1547 1547 1546 1545 1545 1545 1546 1547
1519 1522 1525 1528 1532 1535 1538 1541 1543 1545 1547 1549 1551 1552 1553 1554 1557 1560 1562 1562 1561 1562 1562 1562 1562 1561 1560 1558 1557 1555 1554 1552 1550 1549 1549 1548 1547 1546 1545 1545 1545 1545 1545
1516 1519 1522 1527 1530 1533 1536 1538 1541 1543 1545 1546 1548 1549 1551 1553 1554 1555 1558 1560 1560 1561 1561 1562 1562 1561 1561 1559 1558 1556 1555 1553 1551 1550 1549 1548 1547 1546 1545 1545 1545 1544 1544
1514 1516 1519 1525 1528 1531 1534 1537 1540 1542 1543 1544 1546 1546 1547 1549 1551 1552 1554 1556 1558 1560 1561 1561 1561 1561 1561 1560 1559 1558 1557 1555 1553 1551 1550 1549 1547 1547 1546 1545 1544 1544 1544
1513 1514 1519 1524 1527 1530 1533 1535 1537 1538 1540 1542 1543 1544 1545 1547 1549 1550 1551 1553 1556 1559 1560 1560 1560 1560 1561 1560 1559 1559 1557 1556 1554 1552 1551 1549 1547 1547 1546 1546 1545 1544 1543
1511 1515 1519 1523 1526 1529 1530 1532 1533 1534 1536 1538 1540 1542 1543 1544 1545 1547 1548 1550 1553 1556 1557 1558 1558 1558 1559 1560 1559 1558 1557 1556 1555 1553 1552 1551 1549 1547 1547 1546 1546 1545 1543
1512 1516 1519 1522 1523 1524 1526 1526 1529 1530 1532 1533 1536 1538 1539 1540 1542 1544 1545 1547 1550 1551 1554 1555 1556 1556 1557 1559 1558 1557 1556 1555 1554 1553 1552 1552 1551 1550 1549 1548 1547 1546 1544
1511 1514 1516 1519 1520 1521 1523 1523 1524 1526 1526 1528 1531 1533 1535 1536 1538 1540 1542 1544 1546 1549 1550 1552 1552 1554 1556 1557 1557 1556 1556 1555 1554 1553 1552 1552 1552 1551 1551 1550 1549 1548 1546
1507 1509 1513 1515 1516 1516 1517 1517 1519 1520 1521 1523 1526 1528 1530 1532 1534 1536 1538 1540 1542 1545 1547 1549 1550 1552 1553 1555 1556 1556 1555 1554 1554 1552 1552 1552 1552 1551 1550 1549 1549 1549 1548
1503 1505 1507 1510 1511 1511 1511 1511 1513 1514 1515 1518 1521 1523 1525 1526 1528 1531 1534 1536 1538 1541 1545 1547 1548 1549 1550 1552 1553 1554 1554 1553 1553 1552 1551 1551 1550 1549 1548 1549 1550 1549 1549
1499 1501 1502 1505 1507 1509 1509 1508 1508 1510 1509 1512 1514 1516 1519 1521 1522 1526 1529 1531 1534 1538 1542 1545 1546 1547 1548 1549 1550 1551 1552 1552 1551 1550 1550 1549 1549 1548 1547 1548 1548 1549 1549
1496 1497 1498 1500 1501 1503 1504 1504 1504 1506 1506 1508 1510 1512 1515 1516 1517 1520 1523 1526 1529 1534 1538 1541 1543 1544 1545 1545 1547 1548 1549 1550 1549 1549 1549 1548 1548 1547 1547 1547 1547 1548 1549
1493 1494 1495 1496 1498 1498 1499 1499 1500 1502 1505 1506 1507 1508 1511 1513 1513 1515 1518 1522 1525 1528 1533 1537 1539 1540 1541 1541 1542 1545 1546 1546 1546 1547 1547 1546 1546 1546 1546 1547 1548 1548 1549
1491 1493 1493 1493 1494 1494 1494 1494 1497 1499 1502 1503 1503 1505 1507 1509 1510 1512 1514 1518 1521 1523 1527 1530 1534 1536 1537 1538 1539 1542 1543 1542 1543 1545 1545 1545 1546 1544 1545 1547 1548 1548 1549
1489 1490 1490 1490 1491 1491 1491 1491 1493 1494 1497 1499 1501 1502 1504 1505 1507 1510 1511 1513 1516 1519 1524 1527 1530 1532 1535 1536 1536 1538 1539 1540 1542 1542 1543 1544 1544 1544 1544 1546 1548 1548 1549
1484 1485 1485 1486 1486 1487 1488 1489 1490 1490 1492 1496 1498 1500 1501 1503 1504 1505 1507 1509 1512 1516 1520 1523 1527 1530 1533 1534 1534 1536 1538 1540 1540 1540 1542 1543 1543 1543 1544 1545 1547 1548 1549
1480 1480 1480 1481 1482 1483 1484 1485 1487 1488 1488 1491 1494 1496 1496 1498 1501 1501 1504 1506 1510 1512 1515 1518 1522 1526 1528 1530 1531 1532 1534 1536 1536 1538 1541 1541 1540 1541 1543 1544 1545 1545 1547
1476 1476 1477 1478 1479 1481 1482 1483 1484 1485 1486 1487 1489 1492 1493 1495 1497 1498 1500 1503 1506 1508 1511 1514 1517 1520 1523 1524 1527 1529 1530 1532 1533 1536 1538 1539 1538 1540 1542 1542 1543 1543 1544